Home   Weather   USA   Roanoke   Past weeks
Flag for USA

Past Weather in Roanoke, Alabama, USA — Yesterday and Last 2 Weeks

Currently: 72 °F. Light rain. Cloudy. (Weather station: Callaway Airport, USA). See more current weather

Past Weather in Roanoke — Graph

°F

Roanoke Temperature Yesterday

Maximum temperature yesterday: 91 °F (at 4:15 pm)
Minimum temperature yesterday: 71 °F (at 2:15 am)
Average temperature yesterday: 79 °F

High & Low Weather Summary for the Past Weeks

 TemperatureHumidityPressure
High97 °F (Jul 14, 3:15 pm)97% (Jul 9, 11:35 pm)30.23 "Hg (Jul 9, 11:35 pm)
Low65 °F (Jul 11, 4:55 am)28% (Jul 13, 4:55 pm)29.95 "Hg (Jul 9, 6:35 pm)
Average78 °F79%30.08 "Hg
* Reported Jul 9 6:15 pm — Jul 24 6:15 pm, Roanoke. Weather by CustomWeather, © 2024

Note: Actual official high and low records may vary slightly from our data, if they occured in-between our weather recording intervals... More about our weather records

Roanoke Weather History for the Previous 24 Hours

Scroll right to see more
 ConditionsComfort  
Time TempWeatherWind HumidityBarometerVisibility
6:15 pm
Wed, Jul 24
73 °FHeavy rain. Cloudy.No wind96%30.20 "Hg4 mi
5:55 pm73 °FLight rain. Cloudy.13 mph96%30.21 "Hg10 mi
5:15 pm73 °FRain. Mostly cloudy.3 mph96%30.19 "Hg10 mi
4:55 pm73 °FLight rain. Mostly cloudy.6 mph95%30.19 "Hg10 mi
4:15 pm73 °FRain. More clouds than sun.No wind96%30.19 "Hg2 mi
3:15 pm73 °FRain. Mostly cloudy.7 mph92%30.18 "Hg4 mi
2:55 pm86 °FMostly cloudy.24 mph62%30.17 "Hg10 mi
2:15 pm89 °FScattered clouds.6 mph59%30.15 "Hg10 mi
1:55 pm88 °FSunny.No wind59%30.16 "Hg10 mi
1:15 pm87 °FBroken clouds.7 mph64%30.17 "Hg10 mi
12:55 pm87 °FBroken clouds.No wind63%30.18 "Hg10 mi
12:15 pm86 °FPartly sunny.5 mph65%30.20 "Hg10 mi
11:55 am85 °FOvercast.No wind64%30.21 "Hg10 mi
11:15 am86 °FSunny.No wind60%30.21 "Hg10 mi
10:55 am85 °FScattered clouds.No wind63%30.21 "Hg10 mi
10:15 am83 °FScattered clouds.No wind67%30.23 "Hg10 mi
9:55 am82 °FSunny.No wind70%30.23 "Hg10 mi
9:15 am79 °FSunny.3 mph81%30.23 "Hg10 mi
8:55 am76 °FSunny.3 mph86%30.22 "Hg10 mi
8:15 am74 °FSunny.No wind89%30.22 "Hg10 mi
7:55 am73 °FSunny.No wind95%30.23 "Hg10 mi
7:35 am72 °FSunny.No wind97%30.22 "Hg10 mi
7:15 am72 °FSunny.No wind97%30.22 "Hg10 mi
6:55 am72 °FSunny.No wind96%30.21 "Hg10 mi
6:35 am71 °FSunny.No wind96%30.20 "Hg10 mi
6:15 am71 °FSunny.No wind96%30.20 "Hg10 mi
5:55 am70 °FSunny.No wind97%30.19 "Hg10 mi
5:35 am70 °FClear.No wind97%30.19 "Hg10 mi
5:15 am70 °FClear.No wind97%30.18 "Hg10 mi
4:55 am70 °FClear.No wind97%30.18 "Hg10 mi
4:35 am70 °FClear.No wind97%30.18 "Hg10 mi
4:15 am70 °FClear.No wind97%30.18 "Hg10 mi
3:35 am70 °FFog.No wind97%30.18 "Hg1 mi
3:15 am70 °FFog.No wind97%30.18 "Hg1 mi
2:55 am70 °FFog.No wind97%30.17 "Hg1 mi
2:35 am70 °FFog.No wind96%30.17 "Hg1 mi
2:15 am70 °FPassing clouds.No wind97%30.17 "Hg10 mi
1:55 am70 °FFog.No wind97%30.17 "Hg1 mi
1:15 am71 °FClear.No wind96%30.18 "Hg10 mi
12:55 am71 °FClear.No wind96%30.18 "Hg10 mi
12:15 am71 °FClear.No wind97%30.19 "Hg10 mi
11:55 pm
Tue, Jul 23
72 °FClear.No wind96%30.19 "Hg10 mi
11:15 pm72 °FClear.No wind96%30.19 "Hg10 mi
10:55 pm73 °FClear.No wind96%30.19 "Hg10 mi
10:35 pm74 °FClear.No wind93%30.19 "Hg10 mi
10:15 pm73 °FClear.No wind96%30.19 "Hg10 mi
9:55 pm74 °FClear.No wind93%30.19 "Hg10 mi
9:15 pm73 °FPassing clouds.No wind92%30.18 "Hg10 mi
8:55 pm74 °FLight rain. Partly cloudy.No wind90%30.18 "Hg10 mi
7:55 pm75 °FLight rain. Clear.3 mph92%30.16 "Hg10 mi
7:15 pm81 °FLight rain. Broken clouds.14 mph78%30.14 "Hg10 mi
Weather by CustomWeather, © 2024

See weather overview